Theta_e
292 292 292 292 293 293 294 294 293 293 294 293 294 294 294 294 295 295 296 296 296 297 297 298 298 299 299 299 299 299 300 300 300 300 300 300 301 302 302 302 303 303 304 304 304 305 306 306 307 307 307 307 307 308 308 310 310 311 313 313 314 315 315 315 315 315 315 315 315
292 292 292 291 291 292 293 293 293 293 293 293 294 294 294 294 295 295 295 295 296 297 297 298 298 298 298 298 298 299 299 299 299 299 299 300 301 301 302 302 302 302 302 303 303 304 304 305 305 305 305 305 305 305 305 306 307 308 309 310 311 313 314 315 315 315 316 316 315
292 292 292 292 292 292 292 292 292 291 291 292 293 294 294 294 295 295 295 296 296 296 296 297 297 296 296 297 298 298 298 298 299 299 299 300 300 300 300 301 301 301 301 302 302 303 304 304 304 304 304 304 304 304 304 304 304 305 306 307 309 310 312 313 314 315 315 315 315
292 292 292 291 290 290 290 291 291 291 291 293 293 293 293 294 295 295 295 295 295 295 296 296 296 296 296 296 297 297 298 297 298 298 299 299 299 299 300 300 300 300 301 302 302 302 303 304 304 304 304 304 304 304 304 304 303 304 305 306 307 308 309 311 313 314 315 315 315
291 291 291 290 290 290 290 290 290 291 291 292 293 293 294 294 294 294 294 295 295 295 295 295 295 295 295 295 296 296 296 297 296 297 298 298 299 299 299 299 299 300 300 301 301 302 302 303 304 304 304 304 304 304 304 303 303 303 304 305 306 307 308 308 310 312 314 314 314
289 289 290 290 290 289 289 290 290 290 291 292 292 292 293 293 294 294 294 294 294 294 294 294 294 294 294 295 295 295 296 296 296 297 297 297 298 298 298 298 299 299 300 300 301 301 302 302 303 303 304 304 304 304 303 303 303 303 304 304 305 306 306 308 309 311 313 313 313
288 288 288 288 288 289 289 289 290 291 291 291 291 291 292 292 293 293 293 293 294 294 294 294 293 294 294 294 294 294 295 295 295 295 295 296 296 296 297 297 298 298 299 299 300 301 301 302 302 302 302 302 303 303 303 303 303 303 303 303 304 305 305 307 308 310 311 313 313
287 287 287 288 288 288 289 289 290 290 291 291 291 291 291 291 292 292 292 293 293 293 293 293 293 293 293 293 293 293 293 293 294 294 294 295 295 295 296 296 296 297 298 298 299 300 301 301 302 302 302 302 302 302 303 303 303 302 302 302 303 304 305 306 307 309 310 311 311
287 287 287 288 288 288 289 289 289 290 290 290 291 291 291 291 291 291 292 292 293 293 293 293 293 292 292 292 292 292 293 293 293 293 293 294 294 294 294 295 295 296 296 297 297 299 300 301 301 301 302 302 302 302 302 302 302 301 301 302 302 302 303 305 306 307 309 310 311
287 287 287 288 288 288 289 289 289 289 289 290 290 290 290 290 291 291 291 292 292 292 292 292 292 292 292 292 292 292 292 293 293 293 293 293 293 293 294 294 294 294 295 296 296 297 298 299 300 300 301 301 301 301 301 301 301 301 301 301 301 301 302 303 305 306 307 308 309
287 287 288 288 288 288 289 289 289 289 290 290 290 290 290 290 290 291 291 292 292 292 292 292 292 292 292 292 292 292 292 293 293 293 293 292 293 293 293 293 293 294 294 295 295 296 297 297 298 299 299 300 300 300 300 300 301 300 300 300 300 300 301 302 303 304 306 307 308
287 288 288 288 288 288 289 289 289 289 289 289 290 290 290 290 291 291 291 291 291 291 291 292 292 292 292 293 293 293 293 293 293 292 293 292 292 293 293 293 293 293 293 294 295 295 296 296 297 297 298 299 299 300 300 300 300 300 300 300 300 300 300 301 302 303 305 307 307
288 288 288 288 288 288 288 289 289 289 289 289 289 290 290 290 291 290 290 290 291 291 292 292 292 292 293 293 293 293 293 293 293 292 292 292 292 292 292 293 293 293 293 294 294 295 295 296 296 296 297 298 299 299 299 299 299 299 299 299 299 299 299 301 301 303 304 305 306
288 288 288 288 288 288 288 288 289 289 289 289 289 290 290 290 290 290 290 291 291 291 292 292 292 293 293 293 293 293 293 293 292 292 292 292 292 292 292 292 292 293 293 293 294 294 295 295 295 296 296 297 298 299 299 299 299 299 299 299 299 299 299 300 301 302 304 305 305
288 288 288 288 288 288 288 288 289 289 289 289 289 290 290 290 290 290 291 291 291 291 292 292 293 293 293 293 293 293 293 293 292 292 292 292 292 292 292 292 292 292 293 293 293 294 294 294 295 295 295 296 297 298 299 300 300 300 300 299 299 299 299 300 301 302 303 304 304
289 288 288 288 288 288 288 288 289 289 289 289 289 290 290 290 291 291 291 291 291 292 292 292 292 293 293 293 293 293 293 293 293 292 292 292 292 292 292 292 292 292 292 292 293 293 293 294 294 295 295 296 296 298 298 300 300 300 300 300 299 299 299 299 300 301 303 303 303
289 289 289 289 288 288 288 288 289 289 289 289 289 289 290 290 291 291 291 291 291 292 292 292 292 292 293 293 293 293 293 293 293 293 293 292 292 292 292 292 292 292 292 292 292 293 293 294 294 295 295 296 296 297 298 299 300 300 300 300 299 299 299 299 300 301 302 303 302
290 290 290 289 289 288 288 288 288 289 289 289 289 289 290 290 291 291 291 291 291 292 292 292 292 292 292 292 293 293 293 293 293 293 293 293 293 292 292 292 292 292 292 292 292 293 293 293 294 294 295 295 296 297 298 299 300 300 300 300 300 300 300 300 300 301 302 303 302
291 290 290 289 289 288 288 288 288 288 289 289 289 290 290 291 291 291 291 292 292 292 292 292 292 292 292 292 292 293 293 293 293 293 293 293 293 293 293 293 293 293 293 293 293 293 293 294 294 294 295 295 296 297 298 298 299 300 300 300 300 300 300 301 301 301 302 303 302
290 289 289 289 288 288 288 289 289 289 289 290 290 290 290 291 291 291 291 291 291 292 291 291 292 292 292 292 292 292 293 293 293 293 293 293 293 293 293 293 293 293 293 293 293 293 293 294 294 294 294 295 296 296 297 298 299 300 300 300 301 300 300 301 301 301 302 303 302
289 289 289 289 289 289 289 289 289 290 290 290 290 290 290 291 291 291 291 291 291 292 291 291 292 292 292 292 292 292 293 293 293 293 293 293 293 293 293 293 293 293 293 293 293 293 293 293 294 294 294 295 295 296 297 297 298 299 300 300 301 301 301 301 301 301 302 302 302
288 289 289 289 289 289 289 290 290 290 290 290 290 290 291 291 291 291 291 291 291 291 291 291 292 292 292 292 292 292 293 293 293 293 293 293 293 293 293 293 293 293 293 293 293 293 293 293 294 294 294 294 295 295 296 297 298 299 299 300 300 300 300 300 300 300 301 301 301
289 289 289 290 290 290 290 290 290 290 290 290 291 291 291 291 291 291 291 291 291 291 291 291 292 292 292 293 293 292 292 292 292 293 293 293 293 293 293 293 293 293 292 292 292 292 293 293 294 294 294 295 295 296 296 296 297 298 299 299 299 299 300 300 299 299 299 300 300
289 289 289 290 290 290 290 290 290 290 290 291 291 291 291 291 291 291 291 291 291 291 291 291 292 292 292 293 293 292 292 292 292 292 292 292 292 292 292 292 292 292 292 292 292 292 293 293 293 294 295 295 296 296 296 297 297 297 298 298 299 298 298 298 298 298 298 298 298
289 289 289 289 289 289 289 290 290 290 290 290 290 290 290 290 290 290 290 290 290 290 290 291 291 292 292 292 292 292 292 292 291 291 291 292 292 292 292 292 291 291 292 292 292 292 292 292 293 293 294 295 296 296 297 297 297 298 298 298 298 298 297 297 296 296 296 296 296
288 288 288 289 289 289 289 289 289 289 289 290 290 290 289 290 290 289 289 289 289 289 290 290 291 291 291 291 291 291 291 291 291 291 291 291 291 291 291 291 291 291 292 292 291 291 291 292 292 292 293 294 295 296 297 297 298 298 298 298 297 297 296 295 295 295 295 295 294
288 287 288 288 288 288 288 288 288 288 289 289 289 289 289 289 289 289 288 288 289 289 289 290 290 290 290 291 290 290 290 291 291 291 291 291 290 290 290 291 291 291 291 292 291 291 291 292 292 292 292 294 295 295 296 297 297 297 297 297 297 296 295 294 294 293 293 293 293
287 287 287 287 287 287 287 288 287 287 287 288 288 288 288 288 288 288 288 288 288 289 289 289 289 290 290 290 290 290 290 290 290 290 290 290 290 290 290 290 290 291 291 291 291 291 291 291 292 292 292 292 294 295 296 296 297 297 297 296 296 295 295 294 293 293 292 291 291
286 286 286 286 286 286 287 286 286 286 286 287 287 287 287 287 287 287 287 287 288 288 288 288 289 289 289 289 289 289 289 289 290 290 290 290 290 290 290 289 290 290 290 290 290 291 291 291 291 291 291 292 292 294 295 296 296 296 296 296 295 295 294 293 292 292 291 290 290
286 285 285 285 285 285 285 285 285 285 286 286 286 286 286 286 286 286 286 286 287 287 287 288 288 288 288 288 288 288 288 289 289 289 289 289 289 289 289 289 289 290 290 290 290 290 291 291 291 291 291 291 291 293 294 295 296 296 295 295 294 294 293 292 292 291 290 290 290
285 285 285 284 284 284 284 284 285 285 285 285 285 285 285 285 285 285 286 286 286 286 287 287 287 287 287 287 287 287 288 288 288 288 288 288 288 288 288 289 289 289 289 290 290 290 290 291 291 291 290 291 291 292 293 294 295 295 294 294 293 293 292 291 291 290 290 289 289
284 284 284 283 283 283 284 284 284 284 285 284 285 285 284 284 284 285 285 285 286 286 286 286 286 286 286 286 286 287 287 287 287 287 288 288 288 288 288 288 288 289 289 290 290 290 290 290 290 290 290 290 290 291 292 293 294 294 294 293 292 292 291 291 290 290 289 289 289
283 283 283 283 283 283 283 283 284 284 284 284 284 284 284 284 284 284 284 285 285 285 285 285 285 285 285 285 285 286 286 286 286 287 287 287 287 287 288 288 288 288 289 289 290 290 290 290 290 290 290 290 290 291 292 293 294 293 292 292 291 291 291 290 290 289 289 289 289
282 282 282 282 282 282 282 283 283 283 283 282 283 283 283 283 283 283 283 284 284 284 284 284 284 284 285 285 285 285 286 286 286 287 287 287 287 287 287 288 288 289 289 289 290 290 290 290 290 290 290 290 290 291 292 293 293 292 291 291 291 290 290 290 289 289 289 289 289
281 281 281 281 282 282 282 282 282 282 282 282 282 282 282 282 282 282 283 283 283 284 284 284 284 284 285 285 285 285 285 286 286 286 287 287 287 287 287 287 288 289 289 289 290 290 290 290 290 290 290 290 291 292 293 293 291 291 290 290 289 289 289 289 289 289 289 289 289
281 281 281 281 281 281 281 281 281 281 281 281 281 281 281 282 282 282 283 283 283 283 283 283 283 284 284 284 284 285 285 285 285 286 286 286 286 287 287 287 288 288 289 289 289 290 290 290 290 290 290 290 291 291 291 291 290 289 289 289 288 288 288 288 288 288 288 288 288
281 281 281 281 280 280 280 280 280 280 280 280 280 281 281 281 281 282 282 283 282 282 282 282 283 283 283 283 284 284 284 285 285 285 286 286 286 286 287 287 287 288 288 289 289 289 290 290 290 290 290 290 289 289 289 289 288 288 288 287 287 287 287 287 287 287 287 287 287
281 281 281 280 280 280 280 280 280 280 280 280 280 280 281 281 281 281 282 282 282 282 282 282 282 282 283 283 283 284 284 285 285 285 285 286 286 286 286 287 287 288 288 289 289 289 290 290 290 290 289 288 288 288 287 287 287 287 286 286 286 286 286 286 286 286 286 286 287
281 281 281 280 280 280 280 280 280 280 280 280 280 280 280 281 281 281 282 282 282 282 282 282 282 282 283 283 284 284 284 285 285 285 286 286 286 286 286 287 287 287 288 289 289 289 290 290 290 289 288 287 287 287 287 286 286 286 285 285 285 285 285 285 286 286 286 286 287
281 281 281 280 280 280 280 279 279 279 279 280 280 280 280 280 281 281 282 282 282 282 282 282 282 283 283 283 284 284 284 285 285 286 286 286 286 287 287 287 287 288 288 289 289 290 290 290 289 289 288 287 287 287 287 286 286 285 285 285 285 285 285 285 285 285 285 285 286
281 280 280 280 280 279 279 279 279 279 279 279 279 280 280 280 281 281 281 282 282 282 282 282 282 283 283 283 284 284 284 284 285 286 286 286 287 287 288 287 287 288 288 289 290 290 290 289 289 289 288 287 287 287 287 286 285 285 284 284 284 284 284 284 284 285 285 285 285
Wind_Speed
3 3 2 2 2 2 2 2 3 3 3 4 5 5 5 5 6 6 6 5 5 5 6 6 6 6 7 8 9 10 11 11 12 12 12 13 13 13 13 13 13 13 13 13 12 11 9 8 7 6 5 5 5 5 5 5 6 7 8 9 8 8 9 10 11 12 13 14 13
4 3 2 2 2 2 2 3 3 4 4 4 5 5 5 6 6 6 6 6 5 5 5 5 5 6 7 9 9 9 10 11 12 12 13 13 13 13 13 12 13 13 13 13 13 11 10 10 9 7 6 6 6 6 6 5 6 7 9 11 10 9 9 10 10 11 12 13 13
3 3 2 2 2 2 3 4 4 5 5 5 5 6 6 6 6 6 6 6 6 6 6 6 6 6 7 9 8 8 9 10 11 11 11 12 12 13 13 13 14 14 14 13 13 12 11 11 9 9 8 8 7 7 7 7 6 7 8 10 9 9 8 9 9 9 9 10 12
3 2 2 2 3 3 4 4 5 6 6 6 6 6 6 6 6 6 6 7 6 6 6 6 6 6 6 7 8 8 8 9 9 10 11 11 12 13 14 14 15 15 15 14 14 14 13 12 9 8 8 9 10 9 8 7 7 6 6 7 7 8 9 9 9 8 8 9 10
3 2 2 2 3 4 4 4 6 6 6 6 6 6 6 6 6 6 6 7 7 7 7 7 7 6 6 7 7 8 8 8 8 9 9 10 11 12 13 14 15 15 15 15 15 15 14 13 10 9 9 9 8 8 8 8 7 7 6 6 6 7 8 9 9 9 8 8 9
3 3 3 3 3 4 4 5 6 7 6 6 6 7 7 6 6 7 8 8 8 9 10 9 8 7 7 7 7 7 7 7 7 8 9 10 11 12 13 14 14 14 14 15 15 15 15 13 11 10 10 9 8 8 8 8 7 7 7 7 7 7 8 9 9 9 9 10 10
3 3 3 3 4 4 5 6 6 6 6 6 8 9 9 9 9 9 10 9 9 9 9 8 8 8 7 7 6 6 6 6 7 8 8 9 10 11 12 13 14 14 15 15 15 14 13 12 11 10 10 9 8 8 8 7 7 7 7 8 7 7 7 10 9 9 10 12 13
3 3 3 4 4 5 6 6 6 6 6 6 8 9 10 11 11 11 11 10 9 8 8 7 8 9 8 7 7 6 6 7 7 8 8 9 10 12 12 13 14 14 14 14 14 13 12 11 9 9 9 9 8 8 8 8 8 8 9 9 8 7 7 8 9 10 11 13 14
3 3 4 4 5 5 6 7 7 7 7 8 9 10 11 11 11 11 10 9 8 8 8 7 9 9 9 8 7 7 7 7 8 8 9 9 11 12 13 13 14 15 15 14 15 15 14 11 9 9 9 9 9 9 9 9 10 10 10 10 9 9 9 10 11 12 13 14 15
4 4 4 5 5 6 7 7 8 8 8 9 10 10 11 11 10 10 9 8 8 8 8 8 9 9 9 9 8 8 8 8 8 9 10 11 12 13 13 13 14 15 16 16 15 15 15 12 10 9 9 8 10 11 11 10 11 11 11 9 9 10 12 12 13 14 15 15 16
5 5 5 5 6 7 7 7 8 8 8 9 10 10 10 10 10 10 9 8 9 9 9 9 9 10 10 9 9 9 9 9 9 10 11 13 13 14 15 15 16 17 17 17 16 15 14 12 12 12 12 10 10 11 11 11 12 12 12 10 11 12 13 14 14 14 15 16 17
6 6 6 6 7 7 7 7 7 7 8 9 10 10 10 10 10 10 9 9 9 9 9 9 9 10 10 9 9 9 10 10 11 12 12 13 14 15 16 17 17 18 18 18 16 15 14 14 15 15 16 15 12 10 10 11 12 13 13 13 12 13 14 14 14 14 14 15 16
7 6 6 7 7 7 7 8 7 7 8 10 10 10 10 10 10 10 9 9 10 9 9 9 9 10 10 10 10 10 10 10 11 11 12 13 14 15 16 17 18 18 18 17 16 15 15 16 17 17 18 17 15 13 12 13 13 14 14 14 14 14 14 15 15 15 15 16 17
7 7 7 7 8 7 7 8 7 7 8 10 10 10 10 10 9 9 8 9 9 9 9 10 9 9 10 10 10 11 11 11 11 12 13 13 14 15 16 17 18 18 17 16 16 16 17 17 18 19 19 19 18 16 15 14 14 15 15 15 15 15 15 15 15 15 16 17 18
8 8 8 8 8 7 7 8 7 8 8 10 10 9 9 9 9 8 8 8 9 9 9 10 10 10 11 11 12 12 12 12 12 13 14 14 15 16 16 17 17 18 17 17 17 17 18 19 19 20 20 20 20 19 18 16 16 16 16 16 16 16 15 15 15 15 16 17 16
8 8 9 9 8 8 8 8 7 8 8 9 9 9 9 8 8 8 8 8 9 9 9 10 11 11 12 12 13 13 13 13 13 14 15 15 16 16 17 17 18 18 18 18 18 18 18 19 19 20 21 22 22 21 19 18 18 18 17 17 17 17 16 16 16 16 16 16 15
10 10 10 11 11 10 10 9 8 8 9 10 10 9 9 8 8 8 8 9 9 9 10 12 12 12 13 14 13 14 14 14 15 15 16 16 17 17 18 18 18 18 18 19 19 19 19 19 19 20 21 22 22 22 21 20 19 18 18 18 18 17 17 16 16 17 17 17 15
12 12 12 12 12 12 11 11 10 10 10 10 10 9 9 9 9 9 9 10 10 11 12 13 13 13 14 15 14 14 14 15 16 16 17 17 18 18 19 19 19 19 19 19 19 20 20 21 21 21 21 21 22 21 21 20 19 19 18 18 18 17 17 17 17 17 17 17 15
13 12 12 12 12 12 12 11 11 11 11 11 10 10 10 10 11 11 11 12 12 13 13 13 13 13 14 15 15 15 15 16 17 18 19 19 19 19 19 19 20 20 19 19 20 20 21 21 22 21 21 21 21 21 21 21 20 19 18 18 18 18 18 17 17 17 17 17 16
12 12 12 12 12 12 12 12 12 12 12 11 11 12 12 12 12 12 13 13 13 14 14 14 13 14 15 16 16 16 16 15 17 19 19 19 19 19 20 20 21 21 20 20 20 21 22 22 22 22 22 22 22 22 22 22 21 20 19 17 18 18 18 18 17 18 18 18 17
12 12 12 12 12 13 13 13 13 13 13 13 13 13 13 13 13 13 14 14 14 14 13 14 14 15 16 16 17 17 17 16 17 18 19 18 19 20 20 21 21 21 20 20 21 22 22 23 23 23 22 22 22 22 22 22 21 20 19 18 17 18 18 18 17 18 18 18 18
13 13 13 13 14 14 14 14 14 14 14 14 14 14 13 13 13 13 13 13 13 13 14 14 15 16 16 16 17 18 18 17 17 17 17 17 18 19 19 19 20 20 20 20 21 21 22 23 23 23 23 22 23 23 23 22 21 20 19 19 19 19 18 18 17 17 17 17 18
14 14 14 14 15 15 16 16 15 15 15 14 14 14 13 13 13 13 13 13 13 13 14 14 15 15 16 16 17 18 18 18 18 18 18 18 18 19 19 19 20 20 21 20 20 20 20 20 21 21 22 21 22 22 22 22 21 20 19 19 19 19 18 17 16 15 15 15 16
15 15 15 14 15 16 16 16 16 16 16 16 15 14 14 13 13 13 13 13 13 14 14 13 14 15 16 17 17 18 18 19 19 19 20 19 19 19 19 19 19 19 19 17 18 18 18 17 17 18 19 19 19 19 19 20 20 20 19 19 19 18 17 16 15 14 13 13 13
16 16 16 15 16 16 17 17 17 17 17 17 16 16 15 14 14 14 14 14 14 14 15 15 15 15 16 16 17 18 18 19 19 20 20 21 20 20 19 18 18 17 16 16 20 22 23 21 18 17 17 17 17 17 17 18 18 18 18 18 18 16 15 14 14 13 12 12 11
16 16 16 16 16 17 17 17 17 18 18 18 17 17 16 15 15 14 14 15 15 15 15 16 16 16 16 16 17 18 18 18 18 19 20 20 20 20 19 17 16 15 15 17 21 24 25 25 23 21 19 17 17 17 17 17 17 18 18 18 17 15 14 14 13 12 11 11 10
15 16 16 16 16 17 17 17 17 18 18 18 18 18 18 17 15 15 15 16 16 16 16 16 16 16 16 16 18 18 18 17 17 18 19 19 20 20 19 18 16 15 15 19 23 25 26 26 26 24 22 19 18 17 17 16 16 17 17 17 16 15 15 14 13 13 12 10 10
15 15 15 15 16 16 17 17 17 18 18 19 19 18 18 18 17 17 17 17 17 17 16 15 15 14 14 14 16 17 18 18 17 17 17 18 19 20 20 18 17 17 18 22 25 27 27 27 27 27 25 22 19 18 18 18 17 16 15 15 15 15 15 14 13 13 13 12 11
14 14 14 15 15 16 16 17 17 17 18 18 18 18 18 18 19 19 19 18 18 18 17 15 14 13 13 14 16 17 18 19 18 17 17 18 19 20 20 20 20 21 23 27 28 29 29 29 29 29 29 27 21 17 16 16 16 15 14 13 13 14 14 13 12 12 13 13 12
14 13 13 14 15 16 16 16 16 17 17 17 17 18 19 19 20 20 20 20 20 19 17 16 15 15 16 17 18 18 18 18 18 18 18 20 21 21 22 22 21 22 24 27 29 30 30 30 31 30 30 29 25 21 17 16 15 14 13 12 12 13 13 13 13 13 13 13 13
13 13 14 14 15 16 16 16 17 17 17 17 18 19 20 20 21 21 21 21 21 20 19 19 19 20 20 19 19 19 19 19 19 19 19 20 21 22 23 23 23 23 24 27 29 30 31 32 32 31 31 30 26 21 18 17 16 14 13 12 13 14 14 14 14 14 15 15 15
14 14 15 15 16 16 17 17 17 18 18 19 20 21 22 22 22 22 21 21 21 21 21 21 21 21 21 21 20 21 21 21 21 20 20 21 22 22 23 23 24 24 25 28 30 31 32 33 33 32 32 31 27 24 21 20 17 14 13 14 15 16 16 14 14 16 17 18 17
14 15 16 17 17 18 18 18 18 19 19 20 21 21 22 23 22 22 22 21 20 20 21 21 21 22 22 22 22 22 22 22 22 22 22 22 23 23 23 23 22 23 25 28 30 31 32 32 32 32 32 31 27 25 23 21 16 13 13 14 15 17 18 17 16 17 18 19 18
14 16 17 18 18 19 19 18 18 18 19 20 20 21 22 22 23 22 22 20 19 19 20 21 21 21 21 21 21 22 22 21 21 21 22 22 23 23 23 22 19 20 23 27 29 30 31 31 31 32 32 32 28 25 23 20 15 13 13 13 14 16 17 17 17 17 18 18 17
15 16 17 18 19 19 19 19 19 19 20 20 21 21 22 22 22 22 21 21 20 20 20 20 20 20 20 20 20 21 21 21 21 22 22 22 22 23 24 23 21 23 26 29 30 31 31 31 32 33 33 32 27 23 20 18 16 15 15 15 15 15 15 15 15 16 16 16 15
16 16 17 18 19 20 20 20 20 21 21 21 21 22 22 22 22 21 21 21 21 21 21 20 20 19 20 20 20 20 20 21 22 22 22 22 23 24 24 24 24 25 27 29 31 31 31 32 33 34 33 28 19 14 13 14 14 15 16 16 16 15 15 14 13 13 13 13 14
17 17 17 18 19 20 21 21 21 21 21 21 21 22 22 22 22 21 20 20 20 21 21 20 20 20 20 21 20 21 21 21 22 23 23 23 23 23 24 24 24 25 27 29 30 31 32 33 34 31 24 14 9 9 10 11 11 13 15 16 15 15 14 12 12 12 12 12 12
18 18 19 20 20 21 21 22 22 22 22 22 22 22 22 22 21 20 20 19 19 20 21 20 20 20 20 21 21 22 22 22 22 23 23 23 23 23 24 24 25 25 26 27 29 31 32 32 26 18 13 10 10 10 10 10 10 12 13 13 13 13 12 10 10 10 11 12 14
19 20 21 21 21 22 22 22 22 22 22 23 23 23 22 21 20 20 19 19 19 20 21 21 21 21 21 21 21 22 23 23 23 23 23 23 23 24 24 24 24 24 25 26 29 30 28 22 16 16 16 12 11 10 10 10 11 12 12 12 12 12 12 10 9 9 11 14 17
20 20 21 22 22 22 22 23 23 23 22 23 23 23 23 22 21 20 20 19 19 20 20 21 22 22 21 21 21 22 23 23 23 23 23 23 23 24 25 24 24 24 25 26 27 24 19 18 20 20 17 12 11 10 10 11 12 12 12 12 12 11 11 10 9 9 10 13 16
20 20 21 22 22 22 23 24 24 24 23 23 23 23 22 21 21 20 20 19 19 20 19 19 21 22 22 21 20 21 22 23 23 23 23 23 23 23 23 23 23 23 23 23 20 18 20 24 24 22 18 13 11 11 11 11 12 13 13 12 12 11 11 11 10 10 10 11 12
Wind_Direction
289 285 279 273 270 272 278 284 287 291 293 296 295 294 293 292 291 290 290 289 289 289 290 290 291 293 295 298 302 305 308 310 311 311 310 309 308 307 306 305 304 303 302 301 300 299 296 292 290 288 287 286 286 285 285 287 291 291 291 289 285 280 275 269 263 258 253 248 246
292 289 285 283 282 291 299 304 304 304 303 301 298 296 294 292 290 289 287 285 283 283 284 286 287 289 291 295 299 303 305 306 308 308 309 309 308 308 307 305 304 302 300 299 298 296 294 291 289 287 285 285 283 282 282 281 284 286 287 287 287 285 281 275 268 262 256 250 247
291 293 297 303 309 312 314 314 311 308 305 303 300 297 294 292 290 288 286 283 281 280 281 283 283 284 286 291 295 298 300 301 304 305 307 308 308 309 308 307 305 303 300 298 295 292 290 288 286 284 282 282 280 280 279 279 279 280 281 283 284 284 283 280 276 270 264 257 251
287 287 292 301 306 307 308 309 308 306 303 301 298 295 293 291 289 287 285 284 283 282 280 278 277 278 280 284 288 291 294 297 301 303 305 306 307 308 307 306 305 303 301 297 294 290 287 284 281 279 278 278 277 275 275 275 275 274 275 277 279 280 280 280 278 274 269 263 256
279 272 270 281 293 298 301 304 304 302 300 298 297 295 294 291 290 289 288 289 287 284 281 278 277 276 276 277 281 285 291 296 300 303 305 305 306 306 305 305 303 301 299 297 293 290 286 282 279 277 275 274 272 271 269 269 269 269 271 273 273 275 276 277 276 273 269 263 257
264 263 268 278 292 298 302 302 299 297 295 294 293 292 291 290 290 290 290 289 288 286 285 282 280 278 277 277 279 284 289 295 298 301 303 303 304 304 304 302 300 299 297 294 291 288 285 282 280 277 274 272 270 267 265 263 263 264 265 266 267 269 272 273 273 272 268 264 259
249 260 275 286 294 298 299 298 295 293 292 291 290 289 288 287 287 287 287 288 289 290 289 287 284 282 280 280 283 286 290 294 296 298 301 302 303 303 302 301 300 298 296 294 291 288 285 282 280 279 277 274 271 267 261 257 256 258 259 261 263 265 268 271 272 271 268 265 261
255 265 277 286 291 292 292 291 290 290 290 290 287 286 285 285 285 286 288 290 290 290 289 288 286 284 283 283 285 288 291 295 297 299 300 301 301 301 301 301 301 300 299 297 295 292 289 285 282 280 278 276 273 267 260 253 252 252 255 259 261 264 266 268 270 269 267 265 262
270 273 278 282 285 285 285 284 284 285 285 285 284 283 283 285 285 286 288 289 288 288 289 289 288 287 286 286 288 292 295 299 300 301 301 300 300 301 301 302 302 302 301 301 300 298 296 293 288 283 280 277 274 269 263 255 252 252 254 257 261 263 265 266 267 267 266 265 263
270 272 276 280 281 281 281 282 282 282 283 283 283 283 284 285 285 286 286 286 287 289 289 289 289 289 289 290 292 295 297 299 299 300 300 300 300 300 300 301 301 301 301 301 301 300 299 297 293 288 282 277 273 270 267 261 257 256 256 258 262 265 267 267 266 266 266 265 264
265 267 271 275 277 279 281 283 283 283 283 284 284 284 285 285 285 285 285 286 289 290 290 290 291 292 292 293 294 295 296 297 298 299 299 299 299 299 299 299 299 298 298 298 298 297 296 294 292 290 287 282 276 271 267 263 260 259 258 259 261 264 266 267 266 265 264 264 263
265 266 268 271 274 277 280 282 283 284 284 284 284 285 285 284 284 285 286 288 290 291 292 293 295 295 295 296 295 295 296 296 297 297 297 296 297 297 297 296 296 295 295 294 294 293 292 291 291 290 289 286 282 276 270 264 261 259 259 259 259 261 263 265 265 264 263 262 261
268 269 270 271 273 275 278 281 282 284 284 284 284 284 284 284 284 285 287 289 291 293 295 298 298 297 297 297 296 296 295 295 295 294 293 293 293 293 293 293 293 292 292 292 291 290 289 289 289 289 288 287 284 280 274 268 264 262 261 260 259 260 261 263 264 263 262 260 259
274 273 273 274 274 276 278 280 282 283 284 284 283 283 283 283 284 286 288 290 292 295 297 299 298 298 297 296 295 293 292 291 290 289 288 288 288 288 289 289 289 289 289 288 288 288 287 287 287 287 286 285 284 281 276 271 267 265 263 262 261 260 261 262 262 262 260 258 257
282 281 280 279 279 280 281 282 283 284 284 283 283 283 283 283 285 287 289 291 293 295 296 297 296 295 294 293 291 290 288 287 286 285 285 284 284 284 284 284 284 284 285 285 285 285 285 285 285 285 285 284 283 281 277 273 269 266 264 262 261 261 261 261 261 259 258 256 254
294 292 290 289 287 286 286 285 285 285 285 284 283 283 283 284 286 287 289 290 291 292 293 292 292 292 291 289 288 286 285 284 283 283 282 282 282 281 280 280 280 280 281 281 282 282 282 282 283 283 282 282 282 280 278 274 270 267 264 262 261 260 260 259 258 256 255 253 249
301 298 295 293 291 290 289 288 287 287 286 285 285 284 284 284 285 286 286 287 288 288 288 287 288 288 287 285 284 283 283 282 282 281 281 280 280 279 278 277 277 277 278 279 279 280 280 280 280 279 279 279 279 278 277 274 271 267 264 262 260 259 257 256 254 252 251 248 241
297 294 292 290 290 290 290 289 289 288 287 286 285 284 284 284 284 285 284 284 285 285 285 284 283 282 282 281 281 280 280 280 280 280 279 279 278 277 277 276 275 275 275 276 277 277 278 278 278 277 277 276 276 276 275 273 271 267 264 261 259 257 256 253 251 249 246 242 232
291 290 289 288 289 290 291 291 291 290 288 286 285 284 283 282 283 283 283 283 283 282 282 281 280 279 278 278 278 277 277 278 279 279 278 277 276 275 274 274 274 274 274 275 276 277 277 278 277 276 275 274 273 273 272 272 270 267 263 260 258 256 254 251 248 245 242 237 228
294 293 293 293 294 294 294 294 293 291 290 288 286 284 283 282 282 282 282 282 282 281 280 278 277 276 276 276 276 276 276 277 278 277 277 275 274 273 273 273 274 274 275 275 276 276 277 277 277 276 275 273 273 272 271 271 269 267 263 260 257 254 251 248 244 241 237 233 225
302 301 301 300 299 299 297 296 295 293 291 289 286 284 283 282 282 281 281 281 280 279 277 275 275 275 275 275 276 276 276 276 276 276 275 275 273 273 273 273 274 274 274 275 275 276 276 276 276 275 274 273 272 271 271 271 269 267 265 261 257 252 248 243 238 235 232 229 222
309 307 306 305 303 302 300 298 297 295 292 290 287 285 283 282 281 281 280 280 279 278 276 275 275 275 275 275 276 277 277 277 276 275 274 273 273 272 273 273 273 273 273 273 273 273 273 273 273 272 271 270 269 268 268 268 268 267 266 263 258 251 244 237 232 229 226 223 218
311 310 308 306 305 303 302 300 298 296 294 291 289 287 286 284 283 282 282 281 279 277 276 276 276 276 276 276 276 277 277 277 275 274 272 271 271 271 271 271 271 271 270 270 270 271 271 271 270 269 268 267 265 264 263 263 264 264 264 263 257 249 240 231 225 221 219 217 214
311 310 308 306 305 304 302 301 300 298 296 294 293 291 290 288 287 286 284 283 281 279 278 278 278 278 278 277 277 276 276 275 274 273 272 270 270 270 270 269 269 269 268 268 268 268 268 269 270 269 269 267 265 262 260 259 259 260 260 260 254 245 235 224 216 212 210 209 207
309 308 307 306 305 304 303 302 300 299 298 297 297 295 294 292 291 289 287 286 284 283 282 281 281 280 280 279 277 276 274 273 272 272 271 271 270 269 269 268 268 267 266 266 265 265 265 264 265 267 268 269 267 265 262 259 257 256 256 255 249 239 228 216 207 202 200 200 198
308 308 307 306 305 304 304 302 301 300 300 299 299 298 296 295 293 291 290 289 287 286 285 284 283 282 281 279 278 276 274 272 270 270 269 270 269 268 267 266 266 265 265 265 265 265 265 264 263 263 264 266 266 265 264 261 258 255 253 250 241 231 219 207 198 193 190 190 188
308 307 307 307 306 305 304 304 303 302 302 301 300 299 298 297 295 293 292 290 289 288 287 285 284 283 281 279 277 274 272 270 269 268 268 268 268 267 267 266 265 264 264 264 265 266 266 265 264 264 263 264 265 265 263 261 258 254 249 243 233 222 211 200 190 182 178 176 172
308 308 308 308 308 307 306 306 305 305 304 303 302 300 299 298 296 294 292 290 290 289 288 286 284 282 280 277 274 273 271 270 270 269 268 267 267 267 267 267 266 265 264 265 266 266 267 266 266 265 264 264 266 266 266 264 260 253 244 233 223 213 204 195 184 175 169 165 162
308 309 310 310 309 309 308 308 307 306 305 304 302 301 300 298 296 294 292 291 290 289 287 285 284 281 278 275 274 274 273 272 271 271 270 269 268 267 267 267 267 267 266 266 266 267 266 266 265 264 262 261 261 262 263 263 259 251 239 225 213 205 197 188 179 171 165 160 158
311 312 313 312 311 310 309 308 307 306 305 304 303 301 299 297 295 294 292 291 289 287 286 285 283 281 278 276 276 276 275 274 273 272 271 270 269 268 268 267 267 267 267 266 266 266 266 265 264 263 261 259 258 258 260 260 256 246 231 214 202 194 187 180 173 168 164 159 156
315 316 315 314 312 310 308 307 307 306 305 304 302 300 298 296 294 293 292 290 289 288 286 285 283 281 279 278 277 276 276 275 274 273 271 270 269 268 268 268 267 267 267 266 266 266 265 265 263 262 260 258 256 255 256 257 251 239 221 204 191 183 177 172 169 167 164 160 156
319 318 316 314 311 309 308 308 307 306 305 303 301 299 297 295 293 292 291 290 289 288 287 285 283 281 280 279 278 277 276 275 274 273 271 270 269 269 269 268 267 267 266 266 266 265 264 264 262 261 259 257 255 254 253 253 245 230 211 194 184 177 173 168 168 166 165 162 158
320 318 316 314 311 309 308 307 306 305 303 301 298 296 295 294 293 292 290 290 289 288 286 285 283 281 280 279 278 277 276 274 273 272 271 270 269 269 268 268 267 266 265 265 264 263 263 262 260 259 258 255 254 253 252 248 236 218 200 188 180 175 170 166 166 166 165 164 160
320 318 315 312 310 309 307 306 304 302 300 298 296 295 294 293 292 291 290 289 288 286 284 282 281 279 278 278 277 276 275 274 272 271 271 270 269 268 267 266 265 264 264 264 263 262 261 261 260 258 257 256 255 254 249 237 219 200 187 178 174 170 167 163 163 164 163 162 158
318 316 313 311 309 307 305 303 302 300 298 296 295 294 293 292 291 290 289 288 286 284 282 280 279 278 277 276 274 274 273 273 272 271 270 269 268 267 266 265 265 264 264 264 263 262 262 261 260 260 259 258 257 251 239 218 197 182 173 166 162 160 158 157 158 159 158 156 153
316 313 311 308 306 304 303 301 300 299 297 296 295 294 293 292 290 288 287 287 286 284 282 280 279 277 276 275 274 273 272 271 271 270 269 268 267 267 266 266 265 265 264 264 263 263 263 263 263 263 261 258 251 234 209 187 175 166 160 155 151 149 148 147 149 150 150 149 146
313 311 308 305 304 302 301 301 300 298 297 295 294 293 292 292 290 289 288 287 286 284 283 281 280 278 276 275 274 273 271 270 270 270 269 267 266 266 266 266 265 265 264 264 264 264 265 266 265 260 252 236 207 178 164 159 155 152 148 144 141 139 137 137 138 139 139 140 139
311 309 307 304 303 302 301 301 300 298 297 296 295 294 293 292 291 290 289 288 286 285 283 282 280 278 276 274 274 273 271 269 268 267 267 266 265 264 264 264 264 264 264 264 265 266 267 265 255 234 199 163 153 147 143 141 140 139 137 134 130 127 126 126 127 128 130 133 135
310 308 306 305 303 302 301 301 299 298 297 297 296 295 294 293 291 290 289 287 285 284 283 282 279 277 276 274 274 272 271 269 267 265 265 264 263 262 262 262 263 263 264 265 266 265 261 247 209 173 154 144 142 139 135 132 131 129 127 124 119 116 115 115 117 119 123 127 131
309 308 307 305 304 303 302 301 300 299 298 298 297 296 294 293 291 290 288 286 284 283 281 280 279 277 276 274 273 272 271 269 267 265 263 262 262 261 261 261 262 263 264 265 263 254 232 191 164 152 145 141 139 135 132 129 126 124 121 118 115 113 111 110 112 115 118 122 126
309 308 307 305 304 303 302 301 300 299 298 297 296 295 294 293 291 289 288 286 284 283 281 279 278 277 276 274 273 271 270 269 268 266 264 263 262 262 261 260 262 264 265 263 246 217 184 164 154 148 144 139 137 134 131 128 125 122 119 117 116 115 114 113 112 113 115 117 120